Location: Caltech
(34.1382°N, 118.1253°W)
Time: 21:33:48
(UTC-07:00)

NOAA 19 - Visible Passes

Search period start: 30 June 2016 00:00
Search period end: 10 July 2016 00:00
Orbit: 842 x 862 km, 99.0° (Epoch: 30 June)

Date Brightness Start Highest point End Pass type
(mag) Time Alt. Az. Time Alt. Az. Time Alt. Az.
30 Jun 5.9 03:24:43 10° NNE 03:30:00 48° E 03:32:57 25° SSE visible
30 Jun 6.7 05:06:29 10° NNW 05:10:17 19° WNW 05:14:03 10° WSW visible
01 Jul 6.3 03:13:33 10° NNE 03:18:35 37° E 03:21:23 22° SSE visible
01 Jul 6.5 04:54:41 10° NNW 04:59:01 25° WNW 05:03:21 10° WSW visible
02 Jul 6.7 03:02:27 10° NE 03:07:08 28° E 03:09:50 19° SE visible
02 Jul 6.2 04:42:59 10° N 04:47:44 31° WNW 04:51:52 13° SW visible
03 Jul 7.1 02:51:30 10° NE 02:55:41 22° E 02:58:16 16° SE visible
03 Jul 5.8 04:31:23 10° N 04:36:26 40° WNW 04:40:18 16° SW visible
04 Jul 7.3 02:40:44 10° NE 02:44:12 17° E 02:46:43 13° SE visible
04 Jul 5.5 04:19:50 10° N 04:25:07 51° WNW 04:28:44 20° SW visible
05 Jul 7.6 02:30:21 10° ENE 02:32:42 13° E 02:35:02 10° ESE visible
05 Jul 5.2 04:08:22 10° N 04:13:47 66° WNW 04:17:10 23° SSW visible
06 Jul 5.1 03:56:56 10° NNE 04:02:26 85° WNW 04:05:36 26° SSW visible
07 Jul 5.3 03:45:34 10° NNE 03:51:03 76° ESE 03:54:03 28° S visible
08 Jul 5.6 03:34:16 10° NNE 03:39:39 58° ESE 03:42:29 28° S visible
08 Jul 6.9 05:16:35 10° NNW 05:19:48 16° WNW 05:23:00 10° W visible
09 Jul 6.0 03:23:01 10° NNE 03:28:15 45° E 03:30:54 26° SSE visible
09 Jul 6.7 05:04:39 10° NNW 05:08:33 20° WNW 05:12:27 10° WSW visible
